Zurück zum Katalog

STARLINK-34276

AktivKommunikationVLEO
NORAD 64263·PAYLOAD·🇺🇸 United States

Gestartet Jun 4, 2025 von Vandenberg Space Force Base

Loading…

Nächste Überflüge (nächste 24 Stunden)

TLE

AktuellSource: CelesTrak SupGP

Epoche: Sep 15, 2026, 03:10 UTC

1 64263C 25120H   26258.13243056  .00037987  00000+0  12214-2 0  2581
2 64263  53.1599 315.4563 0001283  90.2184 101.0818 15.31686925    16

Verfolge STARLINK-34276 in Echtzeit mit AllMySat

Download on the App Store